Deville, LA

11:34 AM CST on February 10, 2016 (GMT -0600)
Alexandria Esler Regional

Weather History for KESF - April, 2014

Change the Weather History Date:

Saturday, April 5, 2014

  Actual Average Record
Temperature  
Mean Temperature 62 °F -  
Max Temperature 70 °F 72 °F 84 °F (2001)
Min Temperature 54 °F 48 °F 36 °F (1973)
Degree Days  
Heating Degree Days 4    
Growing Degree Days 12 (Base 50)    
Moisture  
Dew Point 42 °F    
Average Humidity 52    
Maximum Humidity 69    
Minimum Humidity 36    
Precipitation  
Precipitation 0.00 in - - ()
Sea Level Pressure  
Sea Level Pressure 30.04 in    
Wind  
Wind Speed 5 mph (NE)    
Max Wind Speed 12 mph    
Max Gust Speed 21 mph    
Visibility 10 miles    
Events      
Averages and records for this station are not official NWS values.
T = Trace of Precipitation, MM = Missing Value Source: NWS Daily Summary

Daily Weather History Graph

Daily Weather History Graph

Search for Another Location

Airport or City:

Trip Planner

Search our weather history database for the weather conditions in past years. The results will help you decide how hot, cold, wet, or windy it might be!

Date:

Astronomy

Apr. 05, 2014 Rise Set
Actual Time 6:52 AM CDT 7:31 PM CDT
Civil Twilight 6:28 AM CDT 7:55 PM CDT
Nautical Twilight 5:59 AM CDT 8:24 PM CDT
Astronomical Twilight 5:30 AM CDT 8:54 PM CDT
Moon 11:14 AM CDT (4/5) 12:28 AM CDT (4/5)
Length of Visible Light 13h 27m
Length of Day
12h 38m
Waxing Crescent, 34% of the Moon is Illuminated
Apr 5
Waxing Crescent
Apr 7
First Quarter
Apr 15
Full
Apr 22
Last Quarter
Apr 29
New

Hourly Weather History & Observations

Time (CDT) Temp. Dew Point Humidity Pressure Visibility Wind Dir Wind Speed Gust Speed Precip Events Conditions
12:53 AM 60.1 °F 39.9 °F 47% 30.05 in 10.0 mi Variable 3.5 mph - N/A   Mostly Cloudy
1:53 AM 57.9 °F 44.1 °F 60% 30.06 in 10.0 mi Calm Calm - N/A   Mostly Cloudy
2:53 AM 57.9 °F 46.0 °F 65% 30.06 in 10.0 mi NE 3.5 mph - N/A   Partly Cloudy
3:53 AM 57.0 °F 46.0 °F 67% 30.05 in 10.0 mi Calm Calm - N/A   Mostly Cloudy
4:53 AM 55.9 °F 45.0 °F 67% 30.05 in 10.0 mi NNE 5.8 mph - N/A   Partly Cloudy
5:53 AM 55.0 °F 45.0 °F 69% 30.06 in 10.0 mi NE 4.6 mph - N/A   Scattered Clouds
6:53 AM 54.0 °F 44.1 °F 69% 30.07 in 10.0 mi NNE 4.6 mph - N/A   Clear
7:53 AM 55.0 °F 44.1 °F 67% 30.08 in 10.0 mi Variable 5.8 mph - N/A   Clear
8:53 AM 57.9 °F 41.0 °F 53% 30.09 in 10.0 mi ENE 11.5 mph 19.6 mph N/A   Clear
9:53 AM 57.9 °F 39.9 °F 51% 30.12 in 10.0 mi Variable 6.9 mph 16.1 mph N/A   Clear
10:53 AM 62.1 °F 39.9 °F 44% 30.11 in 10.0 mi ENE 10.4 mph 19.6 mph N/A   Clear
11:53 AM 64.0 °F 39.0 °F 40% 30.11 in 10.0 mi NE 10.4 mph 20.7 mph N/A   Clear
12:53 PM 64.9 °F 39.0 °F 39% 30.08 in 10.0 mi East 9.2 mph 19.6 mph N/A   Clear
1:53 PM 66.9 °F 39.0 °F 36% 30.06 in 10.0 mi East 10.4 mph - N/A   Clear
2:53 PM 66.9 °F 41.0 °F 39% 30.03 in 10.0 mi NNE 8.1 mph 16.1 mph N/A   Clear
3:53 PM 69.1 °F 41.0 °F 36% 30.01 in 10.0 mi NE 9.2 mph 18.4 mph N/A   Clear
4:53 PM 68.0 °F 41.0 °F 37% 30.01 in 10.0 mi Variable 4.6 mph - N/A   Clear
5:53 PM 66.0 °F 43.0 °F 43% 29.99 in 10.0 mi Variable 5.8 mph - N/A   Mostly Cloudy
6:53 PM 63.0 °F 44.1 °F 50% 29.99 in 10.0 mi Variable 6.9 mph - N/A   Overcast
7:53 PM 60.1 °F 41.0 °F 49% 30.00 in 10.0 mi Variable 4.6 mph - N/A   Overcast
8:53 PM 59.0 °F 41.0 °F 51% 30.00 in 10.0 mi Calm Calm - N/A   Overcast
9:53 PM 57.9 °F 41.0 °F 53% 29.99 in 10.0 mi NNE 6.9 mph - N/A   Overcast
10:53 PM 57.0 °F 43.0 °F 59% 29.99 in 10.0 mi Variable 4.6 mph - N/A   Overcast
11:53 PM 57.9 °F 44.1 °F 60% 29.98 in 10.0 mi ENE 5.8 mph - N/A   Overcast